Regional Weather Roundup
Issued by NWS Sterling, VA

Home | Current Version | Previous Version | Graphics & Text | Print | Product List | Glossary On
Versions: 1 2 3 4 5 6 7 8 9 10 11 12 13 14 15 16 17 18 19 20 21 22 23 24 25 26 27 28
000
ASUS41 KLWX 250710
RWRLWX

REGIONAL WEATHER ROUNDUP
NATIONAL WEATHER SERVICE BALTIMORE MD/WASHINGTON DC
300 AM EDT SAT OCT 25 2014

Note: "FAIR" indicates few or no clouds below 12,000 feet
with no significant weather and/or obstructions to visibility.
 TC=TEMPERATURE CELSIUS

 * =Non NWS site. Station does not report precipitation (e.g. rain,
    snow, etc.), thunder, or fog.

DCZ001-MDZ009-015-VAZ040>042-051-053>054-250800-
WASHINGTON METRO

CITY           SKY/WX    TMP DP  RH WIND       PRES   REMARKS
WASHINGTON NAT CLEAR     55  41  59 NE3       29.97S
DULLES         CLEAR     44  37  76 NW3       29.97S
ANDREWS AFB    CLEAR     52  38  60 NW8       29.95S
FT BELVOIR     CLEAR     40  39  95 CALM      29.97S
QUANTICO       CLEAR     45  40  82 NW6       29.98S
COLLEGE PARK*  CLEAR     46  41  81 CALM      29.96R
LEESBURG*      CLEAR     43  41  93 CALM      29.98S
MANASSAS*      CLEAR     39  39 100 CALM      29.97S
GAITHERSBURG*  CLEAR     46  36  66 W6        30.00R

$$

MDZ006>007-011-014-250800-
BALTIMORE METRO

CITY           SKY/WX    TMP DP  RH WIND       PRES   REMARKS
BWI AIRPORT    CLEAR     47  38  71 W5        29.94S
MD SCIENCE CTR   N/A     55  38  52 MISG      29.94S
MARTIN STATE   CLEAR     52  41  66 CALM      29.95S
ANNAPOLIS      CLEAR     51  38  60 W5        29.94S
FORT MEADE*    CLEAR     39  37  93 CALM      29.98R

$$

MDZ012-015-019>023-250800-
MARYLAND EASTERN SHORE

CITY           SKY/WX    TMP DP  RH WIND       PRES   REMARKS
OCEAN CITY     CLEAR     52  40  63 NW7       29.91S
SALISBURY      CLEAR     47  41  80 W3        29.93R
BAY BRIDGE AP*   N/A     54  39  58 NW7       29.95R
CAMBRIDGE*     CLEAR     54  41  62 NW7       29.94R
EASTON*        CLEAR     51  43  75 CALM      29.98R

$$

MDZ017>025-250800-
SOUTHERN MARYLAND

CITY           SKY/WX    TMP DP  RH WIND       PRES   REMARKS
PATUXENT RIVER CLEAR     50  38  63 W8        29.95R
ST INIGOES     CLEAR     55  37  50 NW6       29.95R
LEONARDTOWN*   CLEAR     43  36  75 W5        29.97R

$$

MDZ003>005-250800-
NORTH CENTRAL MARYLAND

CITY           SKY/WX    TMP DP  RH WIND       PRES   REMARKS
FREDERICK*     FLURRIES  45  39  81 CALM      29.99S
HAGERSTOWN APT CLEAR     52  37  56 SW7       29.97R
WESTMINSTER*   CLEAR     48  37  66 W6        29.95S

$$

MDZ501>502-250800-
WESTERN MARYLAND

CITY           SKY/WX    TMP DP  RH WIND       PRES   REMARKS
OAKLAND*       CLEAR     43  39  87 SW8       30.02S
CUMBERLAND*    CLEAR     41  37  87 CALM      30.04S

$$

VAZ025>031-250800-
SHENANDOAH VALLEY

CITY           SKY/WX    TMP DP  RH WIND       PRES   REMARKS
WINCHESTER*    CLEAR     43  34  70 CALM      29.98S
FRONT ROYAL*   FAIR      41  36  81 S5        29.98S
LURAY*         FAIR      41  41 100 SW3       30.01R
NEW MARKET*    FAIR      36  33  91 W5        30.00S
STAUNTON*      CLEAR     33  31  91 CALM      30.02F
WAYNESBORO*    FAIR      35  34  96 SW6       30.00F

$$

WVZ021-048>050-054>055-250800-
EASTERN WEST VIRGINIA PANHANDLE

CITY           SKY/WX    TMP DP  RH WIND       PRES   REMARKS
MARTINSBURG    CLEAR     49  35  58 CALM      29.98R
PETERSBURG*    CLEAR     35  33  93 CALM      30.03S

$$

VAZ036>039-050-250800-
CENTRAL FOOTHILLS

CITY           SKY/WX    TMP DP  RH WIND       PRES   REMARKS
CHARLOTTESVILL CLEAR     47  36  65 SW3       29.97S
CULPEPER*      CLEAR     37  36  93 CALM      29.98S
ORANGE*        CLEAR     36  36 100 CALM      29.98S
GORDONSVILLE*  FAIR      37  36  97 CALM      29.97R
WARRENTON*     FAIR      37  37 100 CALM      29.97R

$$

VAZ055>057-250800-
NORTH AND CENTRAL PIEDMONT

CITY           SKY/WX    TMP DP  RH WIND       PRES   REMARKS
FREDERICKSBRG* CLEAR     39  39 100 CALM      29.96S
STAFFORD*      CLEAR    N/A N/A N/A CALM      30.01R

$$

NCZ024-NYZ072-PAZ021-071-VAZ022-071-250800-
OTHER REGIONAL OBSERVATIONS

CITY           SKY/WX    TMP DP  RH WIND       PRES   REMARKS
NEW YORK CITY  CLEAR     54  36  50 NW8       29.89R
PHILADELPHIA   PTCLDY    52  37  56 SW3       29.91R
PITTSBURGH     CLOUDY    46  39  76 CALM      29.98F
ROANOKE        CLEAR     46  36  68 W7        30.04F
RICHMOND       CLEAR     44  41  89 CALM      29.96S
RALEIGH        PTCLDY    45  42  89 CALM      29.98S

$$

ANZ530>537-250800-
MARINE OBSERVATIONS

STATION/POSITION TIME  TEMP    WIND        PRES
                       AIR SEA DIR/SP/G
                 (UTC) (F)     (DEG/KT/KT) (MB)
THOMAS PT LIGHT  0700   54 61  310/  8/  9 1015.0R
BALT KEY BRIDGE  0700   56     260/  9/ 10 1013.6R
COVE POINT       0700   57     330/  9/ 12 1013.8S
LEWISETTA        0700   59 59  340/ 11/ 15 1013.8S
SOLOMONS ISLAND  0700      63                N/A
PINEY POINT      0700          350/ 12/ 13   N/A

$$




USA.gov is the U.S. government's official web portal to all federal, state and local government web resources and services.